Notices

What's New in latest Release from April 7th, 2021:

- Updated Glossary, including Speed of Maximum Gust, and Total Hourly Precipitation

- Updated national and regional climate services offices contacts and prices information

- Addition of station inventory lists for 1981-2010, 1971-2000, and 1961-1990 Normals.

If you haven't already, please take our survey and provide feedback about our website: https://eccc.sondage-survey.ca/f/LanguageSelection.aspx?s=442ca660-fcf1-47c0-95a9-59707d6fd709

Hourly Data Report for November 12, 2017

CARBERRY CS
MANITOBA

49°54'20.900" N
99°21'26.800" W
383.50 m
5010547
71170
WZE

Download Data

Hourly Data (November 2017)
Hourly Data Report for November 12, 2017
TIME
LST
Temp Definition
°C
Dew Point Definition
°C
Rel Hum Definition
%
Precip. Amount Definition
mm

Wind Dir Definition
10's deg

Wind Spd Definition
km/h
Visibility Definition
km
Stn Press Definition
kPa
Hmdx Definition


Wind Chill Definition


Weather Definition


00:00 -4.7 -7.0 84 0.0 26 14   97.83   -10 LegendNANA
01:00 -5.4 -8.0 82 0.0 26 16   97.84   -11 LegendNANA
02:00 -6.3 -8.8 82 0.0 25 20   97.87   -13 LegendNANA
03:00 -6.6 -9.1 82 0.0 25 15   97.89   -13 LegendNANA
04:00 -6.8 -9.1 84 0.0 24 11   97.88   -12 LegendNANA
05:00 -6.4 -9.1 81 0.0 26 14   97.92   -12 LegendNANA
06:00 -6.6 -9.0 83 0.0 25 12   97.94   -12 LegendNANA
07:00 -6.7 -9.2 82 0.0 25 11   97.94   -12 LegendNANA
08:00 -9.4 -11.9 82 0.0 25 11   98.01   -15 LegendNANA
09:00 -9.1 -12.6 76 0.0 24 8   98.03   -13 LegendNANA
10:00 -7.5 -11.6 73 0.0 26 10   98.01   -12 LegendNANA
11:00 -5.9 -10.5 70 0.0 25 14   98.06   -11 LegendNANA
12:00 -5.3 -9.8 71 0.0 27 12   98.05   -10 LegendNANA
13:00 -5.0 -9.3 72 0.0 30 12   98.01   -10 LegendNANA
14:00 -3.9 -9.5 65 0.0 31 7   97.97   -7 LegendNANA
15:00 -5.4 -9.7 72 0.0 1 8   97.95   -9 LegendNANA
16:00 -6.5 -10.6 73 0.0 1 6   97.95   -9 LegendNANA
17:00 -8.0 -11.0 79 0.0 3 5   97.96   -11 LegendNANA
18:00 -8.7 -11.1 83 0.0 9 4   97.93   -11 LegendNANA
19:00 -8.2 -10.9 81 0.0 10 6   97.96   -11 LegendNANA
20:00 -9.6 -12.2 81 0.0 8 8   97.94   -14 LegendNANA
21:00 -7.9 -10.2 84 0.0 10 10   97.91   -13 LegendNANA
22:00 -7.3 -9.7 83 0.0 11 10   97.89   -12 LegendNANA
23:00 -7.6 -10.0 83 0.0 9 11   97.85   -13 LegendNANA

Notes on Data Quality.

Legend

  • E = Estimated
  • M = Missing
  • NA = Not Available*
  • [empty] = Indicates an unobserved value
Date modified: